Probability
0 0 0 0 0 1 1 1 0 1 2 4 5 5 4 3 2 1 0 0 0 0 0 0 0 0 0 0 0 0 0 0 0 0 0 0 0 0 0 0 0 0 0 0
0 0 0 0 0 0 0 0 0 0 2 4 4 3 2 1 1 0 0 0 0 0 0 0 0 0 0 0 0 0 0 0 0 0 0 0 0 0 0 0 0 0 0 0
0 0 0 0 0 0 0 0 0 1 3 3 2 1 1 1 0 0 0 0 0 0 0 0 0 0 0 0 0 0 0 0 0 0 0 0 0 0 0 0 0 0 0 0
0 0 0 0 0 0 0 1 2 3 4 3 1 0 0 0 0 0 0 0 0 0 0 0 0 0 0 0 0 0 0 0 0 0 0 0 0 0 0 0 0 0 0 0
0 0 0 0 0 0 0 1 2 3 4 3 2 1 0 0 0 0 0 0 0 0 0 0 0 0 0 0 0 0 0 0 0 0 0 0 0 0 0 0 0 0 0 0
0 0 0 0 0 0 0 1 1 1 2 2 2 1 0 0 0 0 0 0 0 0 0 0 0 0 0 0 0 0 0 0 0 0 0 0 0 0 0 0 0 0 0 0
0 0 0 0 0 0 0 0 0 0 0 0 1 1 0 0 0 0 0 0 0 0 0 0 0 0 0 0 0 0 0 0 0 0 0 0 0 0 0 0 0 0 0 0
0 0 0 0 0 0 0 0 0 0 0 0 0 0 0 0 0 0 0 0 0 0 0 0 0 0 0 0 0 0 0 0 0 0 0 0 0 0 0 0 0 0 0 0
0 0 0 0 0 0 0 0 0 0 0 0 0 0 0 0 0 0 0 0 0 0 0 0 0 0 0 0 0 0 0 0 0 0 0 0 0 0 0 0 0 0 0 0
0 0 0 0 0 0 0 0 0 0 0 0 0 0 0 0 0 0 0 0 0 0 0 0 0 0 0 0 0 0 0 0 0 0 0 0 0 0 0 0 0 0 0 0
0 0 0 0 0 0 0 0 0 0 0 0 0 0 0 0 0 0 0 0 0 0 0 0 0 0 0 0 0 0 0 0 0 0 0 0 0 0 0 0 0 0 0 0
0 0 0 0 0 0 0 0 0 0 0 0 0 0 0 0 0 0 0 0 0 0 0 0 0 0 0 0 0 0 0 0 0 0 0 0 0 0 0 0 0 0 0 0
0 0 0 0 0 0 0 0 0 0 0 0 0 0 0 0 0 0 0 0 0 0 0 0 0 0 0 0 0 0 0 0 0 0 0 0 0 0 0 0 0 0 0 0
0 0 0 0 0 0 0 0 0 0 0 0 0 0 0 0 0 0 0 0 0 0 0 0 0 0 0 0 0 0 0 0 0 0 0 0 0 0 0 0 0 0 0 0
0 0 0 0 0 0 0 0 0 0 0 0 0 0 0 0 0 0 0 0 0 0 0 0 0 0 0 0 0 0 0 0 0 0 0 0 0 0 0 0 0 0 0 0
0 0 0 0 0 0 0 0 0 0 0 0 0 0 0 0 0 0 0 0 0 0 0 0 0 0 0 0 0 0 0 0 0 0 0 0 0 0 0 0 0 0 0 0
0 0 0 0 0 0 0 0 0 0 0 0 0 0 0 0 0 0 0 0 0 0 0 0 0 0 0 0 0 0 0 0 0 0 0 0 0 0 0 0 0 0 0 0
0 0 0 0 0 0 0 0 0 0 0 0 0 0 0 0 0 0 0 0 0 0 0 0 0 0 0 0 0 0 0 0 0 0 0 0 0 0 0 0 0 0 0 0
0 0 0 0 0 0 0 0 0 0 0 0 0 0 0 0 0 0 0 0 0 0 0 0 0 0 0 0 0 0 0 0 0 0 0 0 0 0 0 0 0 0 0 0
0 0 0 0 0 0 0 0 0 0 0 0 0 0 0 0 0 0 0 0 0 0 0 0 0 0 0 0 0 0 0 0 0 0 0 0 0 0 0 0 0 0 0 0
0 0 0 0 0 0 0 0 0 0 0 0 0 0 0 0 0 0 0 0 0 0 0 0 0 0 0 0 0 0 0 0 0 0 0 0 0 0 0 0 0 0 0 0
0 0 0 0 0 0 0 0 0 0 0 0 0 0 0 0 0 0 0 0 0 0 0 0 0 0 0 0 0 0 0 0 0 0 0 0 0 0 0 0 0 0 0 0
0 0 0 0 0 0 0 0 0 0 0 0 0 0 0 0 0 0 0 0 0 0 0 0 0 0 0 0 0 0 0 0 0 0 0 0 0 0 0 0 0 0 0 0
0 0 0 0 0 0 0 0 0 0 0 0 0 0 0 0 0 0 0 0 0 0 0 0 0 0 0 0 0 0 0 0 0 0 0 0 0 0 0 0 0 0 0 0
0 0 0 0 0 0 0 0 0 0 0 0 0 0 0 0 0 0 0 0 0 0 0 0 0 0 0 0 0 0 0 0 0 0 0 0 0 0 0 0 0 0 0 0
0 0 0 0 0 0 0 0 0 0 0 0 0 0 0 0 0 0 0 0 0 0 0 0 0 0 0 0 0 0 0 0 0 0 0 0 0 0 0 0 0 0 0 0
0 0 0 0 0 0 0 0 0 0 0 0 0 0 0 0 0 0 0 0 0 0 0 0 0 0 0 0 0 0 0 0 0 0 0 0 0 0 0 0 0 0 0 0
Wind_Speed
4 4 3 4 7 8 8 8 5 6 7 7 8 9 9 11 12 11 11 11 10 9 9 9 8 8 8 8 8 8 8 8 8 7 6 6 6 5 5 5 6 6 6 7
4 3 1 2 5 7 8 9 7 7 8 9 11 10 9 10 11 11 11 11 10 10 9 8 7 7 7 7 6 6 7 8 7 6 6 5 5 5 5 6 5 5 6 7
5 3 2 3 7 7 8 9 8 7 7 9 10 9 9 9 9 9 10 11 10 9 8 7 6 5 6 6 6 6 6 6 6 5 5 4 5 5 5 5 4 5 6 7
5 3 1 5 7 7 7 9 9 9 10 10 11 10 9 8 9 10 10 10 10 8 7 6 5 5 5 5 5 6 5 6 6 5 5 4 5 5 4 4 4 4 5 5
4 2 6 5 6 6 5 8 8 8 11 12 13 12 9 8 9 10 10 9 9 8 7 5 4 4 4 5 5 5 5 5 5 4 4 4 4 4 4 3 3 3 4 4
4 3 3 5 6 4 3 5 6 6 8 9 8 5 5 8 10 11 10 9 8 7 7 5 3 3 4 5 5 5 5 5 5 4 4 4 4 3 3 2 3 3 4 4
4 2 6 6 5 4 2 4 4 6 7 6 5 7 11 11 11 10 10 9 8 7 6 4 4 4 4 5 5 5 5 4 4 3 3 4 3 3 3 3 3 2 2 3
4 3 5 8 6 7 6 6 8 10 11 13 14 14 13 12 11 10 9 8 7 6 6 4 4 4 5 5 4 4 3 3 3 2 2 4 3 2 2 2 1 1 2 2
6 6 7 9 9 8 8 9 9 11 13 14 14 14 13 12 10 9 9 7 6 6 6 4 4 4 5 4 3 2 3 2 2 3 3 2 2 1 1 2 2 3 3 3
6 8 9 9 10 9 10 10 11 12 13 13 14 14 13 11 10 9 8 7 6 7 6 5 4 5 3 2 2 2 2 1 1 2 2 3 3 4 4 5 5 4 4 3
7 9 9 9 9 10 11 12 12 12 13 13 14 13 12 11 10 9 8 7 6 5 6 6 5 4 3 2 2 2 1 0 0 1 2 3 4 4 5 5 4 4 5 5
4 8 7 11 11 11 11 11 12 13 13 12 12 12 12 10 9 9 8 7 6 6 5 5 5 4 3 2 1 1 1 1 0 1 1 2 4 4 7 5 4 3 3 3
9 10 13 14 13 12 12 13 12 13 13 12 11 11 11 10 9 8 8 7 6 5 5 4 3 3 2 1 1 1 1 1 1 1 1 1 2 3 4 3 1 2 3 4
13 14 15 14 13 12 13 14 13 13 12 12 11 11 10 9 9 8 8 7 6 5 4 3 3 3 2 2 1 1 1 1 1 1 1 1 1 1 1 2 3 3 4 7
12 12 14 14 14 14 13 13 13 12 12 12 11 10 10 9 9 8 7 6 5 4 3 3 3 2 2 2 0 1 1 1 1 1 1 1 2 2 2 2 1 1 2 3
14 15 15 15 15 14 14 14 13 13 12 12 11 10 10 9 8 7 6 5 4 3 3 2 2 1 1 1 2 1 1 1 2 1 0 2 2 2 2 1 1 1 1 2
15 15 16 15 15 14 13 12 12 12 12 12 11 11 10 9 8 7 6 5 3 3 2 1 1 1 2 2 2 2 2 4 3 1 1 2 2 2 2 1 1 1 2 3
14 14 14 15 14 14 13 13 12 12 12 12 12 10 10 8 7 6 5 5 4 4 2 1 1 3 2 1 2 3 2 2 3 2 3 3 2 2 1 1 1 1 1 2
15 15 15 15 14 13 13 13 13 12 12 12 11 10 9 8 7 6 5 4 4 4 3 3 1 4 3 1 2 4 3 0 3 3 4 4 1 1 1 1 1 1 1 1
16 16 16 15 15 13 13 13 13 12 11 11 11 9 8 7 7 5 4 2 2 3 4 4 4 4 3 2 2 4 2 0 3 3 3 3 2 1 1 1 1 1 1 1
17 17 16 15 14 14 13 13 12 12 11 11 10 9 8 7 6 5 4 4 5 4 3 3 4 3 1 2 3 5 2 0 2 3 3 3 2 2 1 1 1 1 1 1
16 16 16 15 14 13 12 12 12 12 11 10 10 9 8 7 6 5 2 3 6 4 3 4 3 3 3 4 6 4 1 1 1 3 3 2 2 1 1 1 1 1 1 1
14 15 15 15 14 13 13 12 12 11 11 10 9 9 8 6 5 5 5 5 6 5 3 2 5 3 2 5 7 2 2 1 1 2 4 3 2 1 1 1 1 0 1 1
14 14 14 14 14 14 13 12 11 9 10 9 9 8 6 5 4 3 5 7 7 5 3 5 4 1 3 6 7 2 3 2 1 1 3 3 3 2 2 1 0 0 1 1
14 14 14 14 13 11 12 12 12 11 10 8 9 9 7 5 4 5 7 8 8 6 5 7 7 6 6 8 5 1 3 4 3 3 1 1 1 2 2 1 1 0 1 1
13 12 11 11 9 9 10 10 10 9 9 8 8 8 7 5 6 6 6 9 10 7 6 7 8 8 8 7 2 2 4 5 4 3 1 0 1 1 2 1 1 1 1 2
14 11 10 11 10 10 10 10 10 10 9 9 8 8 8 7 6 7 7 7 8 8 7 7 8 8 7 5 2 2 1 2 2 2 2 2 1 1 2 2 1 1 1 2
Wind_Direction
266 275 296 351 354 353 1 4 14 64 84 93 97 105 111 121 122 119 116 111 105 101 97 93 90 86 86 87 86 89 89 86 84 84 83 83 80 76 72 71 72 65 63 61
289 278 274 29 21 8 22 20 31 77 79 89 98 99 103 116 121 121 119 114 108 103 100 97 95 97 96 93 92 90 91 90 90 89 86 82 79 72 67 64 62 61 63 63
284 260 209 44 29 25 34 31 24 51 87 102 99 100 110 118 118 120 120 117 113 108 101 97 93 94 95 95 94 91 92 94 92 87 82 77 75 71 65 64 63 61 66 77
289 290 19 79 48 44 58 54 57 82 103 109 106 96 91 103 116 116 117 115 110 107 102 95 91 91 95 97 98 95 91 90 87 82 76 70 65 63 57 55 54 62 68 79
314 11 103 88 47 27 45 65 59 90 109 113 115 102 82 87 106 113 112 111 110 109 109 107 106 108 110 104 98 95 90 82 77 72 68 63 60 58 53 48 48 64 68 73
316 343 59 70 36 24 77 82 55 87 113 129 139 119 112 112 109 109 110 112 115 117 114 116 116 108 100 97 94 89 84 77 70 59 56 58 54 47 49 46 41 52 65 67
322 22 79 35 6 350 28 79 70 86 103 111 94 94 117 119 114 115 118 120 124 125 121 124 121 107 100 99 92 85 81 78 73 63 65 66 55 43 33 38 43 41 59 87
343 30 65 16 31 53 81 91 88 92 98 101 103 108 115 117 119 123 125 125 127 125 122 119 113 108 103 93 87 85 82 73 65 47 45 69 63 51 32 8 25 57 58 69
44 74 82 64 77 89 97 97 99 105 111 116 119 121 122 122 125 127 126 125 128 126 119 116 115 108 104 103 106 98 80 65 57 59 54 46 40 43 32 18 21 32 40 39
109 114 106 97 97 94 93 99 106 113 119 124 124 126 126 129 131 130 128 132 138 134 128 125 122 113 111 114 98 79 68 56 50 89 87 58 36 22 32 25 20 18 31 24
115 125 119 111 107 105 103 106 111 116 121 123 126 130 132 132 132 135 137 138 141 137 132 127 122 123 131 118 91 70 34 281 89 84 83 85 73 44 40 60 45 17 11 7
124 144 139 129 122 121 119 117 119 120 118 122 128 130 131 130 133 138 139 139 138 135 131 132 135 133 125 114 101 66 353 321 35 105 113 127 133 115 60 81 101 73 37 358
109 116 115 123 124 124 123 123 124 124 124 124 125 129 129 130 134 138 138 138 135 133 128 130 129 122 114 94 73 51 14 8 358 35 69 90 130 149 147 139 207 279 285 297
111 117 124 128 126 126 125 125 123 123 124 126 130 132 132 134 136 134 130 127 128 127 128 132 130 124 126 93 46 8 2 74 336 35 55 66 71 73 109 149 172 190 222 251
130 130 129 128 129 128 130 131 132 131 130 131 134 134 134 133 131 128 126 125 127 132 130 129 123 122 139 133 173 298 338 39 43 46 80 89 79 74 67 56 47 83 148 196
133 131 133 136 137 139 141 142 138 137 136 135 136 135 134 133 130 129 129 130 134 126 112 109 113 131 172 187 235 239 160 76 344 332 91 106 95 85 75 75 52 37 42 47
144 146 147 146 146 147 146 144 141 140 139 139 140 139 137 135 134 134 133 128 123 117 117 119 126 234 242 237 268 276 205 159 195 239 83 82 77 73 64 53 69 54 63 60
151 151 151 151 151 150 148 144 142 140 139 139 140 142 143 143 143 140 139 144 149 146 155 136 49 317 297 332 330 309 295 168 170 139 102 83 67 74 83 72 56 57 86 163
148 148 149 151 150 148 147 145 144 144 144 144 144 146 147 147 144 148 159 176 178 164 146 108 106 269 272 95 306 267 273 235 123 115 111 126 186 113 85 74 58 38 8 15
148 148 149 150 149 148 146 146 144 144 146 147 146 150 151 149 154 162 172 160 100 112 133 136 214 243 245 152 248 280 264 189 122 128 133 137 126 112 104 92 88 55 19 16
150 151 152 150 148 148 147 147 146 149 150 151 154 157 155 159 169 174 195 165 138 134 139 161 240 267 359 21 260 270 261 108 124 130 128 124 118 110 93 59 54 55 24 16
151 152 152 149 149 148 147 148 151 154 155 160 164 161 160 170 178 175 168 121 138 144 209 203 179 75 38 319 283 276 140 139 136 130 122 120 129 131 121 104 63 64 51 27
150 151 151 151 151 148 149 154 158 159 164 170 170 168 173 182 186 181 163 150 153 168 235 79 105 103 356 289 279 257 117 100 87 121 129 137 141 139 137 138 124 73 61 22
150 152 152 151 151 153 158 163 162 165 172 177 171 171 177 183 184 156 118 119 125 157 169 127 156 182 283 275 275 266 139 150 155 129 128 141 150 147 138 139 153 141 102 63
153 154 155 156 159 162 164 164 164 171 180 182 176 175 192 194 171 147 138 143 152 175 174 176 204 222 252 267 272 16 74 66 47 23 73 112 157 149 147 146 129 89 84 75
155 160 159 165 164 164 167 171 174 179 185 185 181 179 190 181 160 148 155 162 173 201 220 187 195 218 239 254 248 107 123 153 178 203 175 169 190 130 131 134 167 191 125 98
160 160 162 172 173 176 177 179 181 183 189 189 185 180 184 182 175 174 179 177 178 194 219 214 204 209 223 228 162 134 168 169 167 169 167 198 197 183 158 168 198 156 122 114